Wind_Speed
14 14 14 14 14 14 14 15 14 15 14 14 14 14 14 14 14 14 14 14 14 14 14 14 14 15 16 16 17 17 20 22 24 17 10 15 16 10 8 4 9 19 15 11 8 6 6 4 4 5 5 4 2 1 3 3 2 2 3 2 2 4 5 4 5 5 4 5 8 10 7 7 8 5 3 7 10 9 10 7 6 9 10 11 16 21 24 23
13 14 14 14 14 14 15 15 15 15 14 15 14 14 14 14 14 14 14 14 14 14 14 14 14 14 15 15 15 17 21 22 22 18 13 11 11 8 9 7 10 18 16 12 10 6 7 3 5 5 4 2 1 2 2 3 3 3 3 2 4 5 4 4 4 4 5 6 9 13 5 6 6 4 3 3 4 7 12 8 7 12 12 13 17 20 21 24
13 13 14 14 14 14 15 15 15 15 15 15 15 15 15 14 15 14 15 14 14 14 13 14 13 14 14 14 14 16 20 18 12 10 7 11 10 6 11 14 11 14 13 10 10 11 8 5 9 6 3 2 1 2 2 2 3 3 3 2 7 5 5 4 5 7 7 8 9 12 6 5 5 2 1 3 5 5 10 9 7 10 13 14 13 16 19 22
13 13 14 14 15 15 15 15 15 15 15 15 15 15 15 15 15 14 14 14 14 14 13 13 13 14 13 13 13 15 14 9 4 4 5 10 13 8 12 19 13 12 10 5 4 11 8 5 9 5 3 2 2 2 2 3 2 2 4 5 6 3 6 6 5 8 9 9 7 8 9 9 6 3 4 7 6 2 6 11 12 15 18 16 13 14 16 17
13 13 14 14 15 15 15 16 16 16 16 16 15 15 15 15 15 14 14 14 14 14 13 13 13 13 12 12 11 11 8 3 3 5 5 8 14 9 14 21 14 12 10 7 5 9 8 4 6 3 2 2 2 1 3 4 2 1 4 7 6 2 7 7 4 8 9 8 7 7 9 8 3 2 7 10 6 3 8 11 15 19 20 18 15 14 14 14
13 13 13 14 14 15 15 16 16 16 16 16 16 16 15 15 15 15 14 13 14 13 13 12 12 12 11 10 7 5 2 1 8 8 9 11 13 6 15 22 14 12 11 9 7 8 7 3 4 3 2 1 3 4 4 3 3 2 5 6 6 5 7 7 6 10 9 7 9 7 7 6 3 0 7 9 4 4 8 11 13 15 16 17 17 15 14 13
14 14 14 14 14 14 15 15 16 16 16 16 16 16 15 15 15 15 14 14 13 13 13 12 12 11 10 8 3 3 3 6 14 10 13 13 8 2 15 23 15 13 13 10 8 7 5 5 4 3 4 1 3 4 4 3 3 4 5 6 6 7 7 8 9 11 9 9 12 8 7 9 6 3 4 6 3 5 8 11 10 10 13 16 15 13 13 13
14 14 14 14 14 14 15 15 16 16 16 16 16 15 15 15 14 15 14 13 13 13 13 11 10 9 8 6 2 2 1 9 14 13 14 12 5 2 16 24 18 14 15 14 9 7 5 6 5 3 3 2 3 3 4 2 1 5 7 6 5 6 8 9 8 10 10 9 10 7 8 13 10 3 2 4 6 11 11 11 11 11 13 14 13 12 12 12
14 15 14 14 14 14 14 15 15 15 16 16 16 16 15 15 15 15 14 13 13 12 12 11 9 6 5 4 3 3 5 7 10 12 9 6 4 6 15 18 19 16 14 14 11 9 6 5 6 4 4 3 3 3 3 1 3 6 7 6 5 7 8 8 8 9 9 6 6 6 9 13 7 3 2 2 6 12 13 14 14 14 14 12 10 11 11 12
14 14 14 15 14 14 14 14 15 15 16 16 16 16 16 15 15 15 13 13 12 11 12 10 8 4 3 1 4 2 6 4 7 8 5 1 3 9 13 12 18 19 12 10 12 11 7 6 6 4 3 1 3 4 3 5 4 5 5 6 7 9 9 7 7 10 8 5 6 6 11 12 5 3 1 0 6 11 14 15 14 14 13 11 9 8 9 10
14 14 15 15 15 15 15 15 15 16 16 16 17 17 16 16 15 15 14 13 12 12 10 8 6 2 1 1 4 4 5 3 4 9 10 4 1 7 12 12 16 19 14 8 12 17 11 8 5 3 2 1 2 4 4 5 3 4 4 6 7 7 8 6 7 9 4 5 8 8 10 11 5 2 6 8 9 11 16 16 14 13 10 10 9 9 8 9
14 15 15 15 16 16 16 16 16 16 17 17 17 17 17 17 16 16 15 14 12 10 8 7 4 1 1 1 5 11 5 2 2 3 7 9 9 9 10 12 15 18 16 9 12 20 16 8 5 3 3 1 1 3 4 4 2 3 2 4 8 6 6 7 7 6 4 4 6 6 5 8 4 4 9 12 11 11 15 15 14 12 8 7 8 7 7 8
14 15 15 16 16 16 17 17 16 17 18 18 18 18 18 19 18 17 16 14 11 9 8 6 3 2 2 1 9 16 13 11 13 15 18 18 17 15 13 14 14 17 18 13 12 18 17 11 7 5 2 1 1 2 4 4 2 3 1 1 5 6 6 7 4 4 5 5 4 7 2 6 7 7 8 13 14 13 12 13 12 9 7 6 5 5 5 6
15 16 16 17 17 17 18 18 18 18 19 20 20 20 20 20 20 19 16 12 9 7 6 4 2 3 2 6 15 18 16 16 19 21 20 17 15 14 14 15 15 16 19 18 12 10 15 14 5 1 2 1 4 4 5 5 2 2 3 2 2 2 6 7 4 2 3 4 4 8 3 6 9 7 8 11 15 16 14 13 11 8 8 7 6 6 5 6
16 17 18 18 18 18 19 19 19 20 20 21 21 22 23 23 22 19 13 9 6 3 3 3 4 3 1 9 15 13 8 8 15 18 16 15 13 11 13 14 16 17 18 19 14 6 9 10 4 1 3 3 3 3 4 4 3 2 2 4 3 2 5 8 6 3 5 4 4 8 4 5 9 7 9 12 14 16 15 13 11 9 9 8 7 7 6 6
16 17 18 19 19 19 20 20 20 21 21 22 23 24 25 24 20 14 7 6 4 3 4 3 3 3 1 7 9 8 6 7 10 11 11 16 17 15 12 9 12 15 16 18 15 9 4 4 2 3 3 4 2 1 2 4 4 2 1 4 4 3 3 6 6 4 5 4 0 5 4 3 7 5 9 14 14 14 14 13 12 10 10 9 7 7 7 6
15 17 18 19 19 20 20 20 21 21 22 23 25 26 24 19 13 6 4 3 2 4 6 2 1 2 4 8 8 8 5 5 6 5 9 17 20 19 11 4 5 8 10 11 9 6 2 1 2 2 1 2 2 3 1 4 5 3 2 2 4 3 4 3 5 6 1 1 3 3 4 5 7 3 8 15 16 14 13 13 13 11 9 8 7 7 7 6
16 17 18 19 19 20 21 21 21 22 23 24 25 26 19 10 5 2 8 9 7 5 3 1 1 1 4 6 5 5 3 3 5 6 7 15 20 21 13 5 3 3 3 3 2 3 2 1 1 1 2 1 3 4 3 5 3 1 1 2 3 3 4 4 3 5 5 2 3 2 3 6 10 6 6 13 15 14 13 13 13 11 10 8 8 9 8 7
16 17 19 19 19 20 21 21 21 22 24 25 25 20 9 3 6 6 9 9 6 3 1 3 4 2 3 6 5 6 9 11 11 9 8 14 17 17 13 6 2 4 3 1 1 3 3 1 0 1 3 3 4 5 6 6 3 2 3 3 3 4 6 6 4 5 4 4 5 4 6 7 10 9 5 11 13 14 12 10 9 9 8 7 9 10 9 9
17 18 20 20 20 21 21 21 21 22 24 24 22 13 3 3 4 2 2 3 5 5 4 5 8 6 8 10 6 7 12 11 7 4 5 13 14 9 6 3 1 2 3 3 3 2 3 3 5 5 4 5 6 7 7 5 1 2 3 2 4 5 7 7 4 6 3 3 6 6 7 8 10 11 5 11 12 12 11 9 9 10 9 9 11 11 11 10
18 19 20 21 21 21 21 21 21 23 22 18 13 6 1 2 3 4 4 4 9 10 10 10 11 12 13 14 9 5 7 6 4 6 6 9 13 8 3 3 3 3 2 4 3 1 3 6 7 5 6 6 7 6 6 3 2 2 3 4 6 4 8 8 5 8 4 1 6 6 6 9 12 10 4 11 13 13 13 12 12 12 10 10 12 13 12 9
18 19 20 21 21 21 21 21 22 22 15 8 6 2 1 1 4 7 4 5 9 11 13 14 13 15 17 20 18 6 3 4 7 10 5 6 9 7 3 4 5 5 3 1 1 2 2 6 7 4 6 6 4 2 4 3 3 3 2 2 5 4 5 8 5 7 3 3 5 7 6 10 12 9 5 12 14 14 16 17 16 16 14 12 13 13 12 11
18 19 21 21 21 22 21 22 23 15 5 7 7 3 3 7 11 12 3 2 9 8 10 12 11 12 14 15 15 8 4 6 5 9 4 8 6 6 5 5 6 5 2 3 4 4 4 6 7 7 6 5 3 3 4 2 2 3 3 2 5 4 2 5 5 5 3 2 6 6 6 9 9 5 5 11 12 12 15 16 15 15 15 14 13 12 12 13
18 20 20 21 22 22 22 24 16 3 5 14 11 7 10 14 15 9 1 1 7 5 8 13 10 9 12 9 9 12 7 6 6 7 7 10 5 4 5 5 6 5 4 6 8 6 9 8 4 5 6 7 6 5 4 4 3 3 5 5 5 5 6 7 6 6 5 5 4 2 5 6 6 4 3 4 6 10 11 10 8 8 8 9 10 10 11 12
19 20 20 21 21 22 24 19 5 2 13 14 7 9 14 15 14 5 2 1 5 5 5 9 6 6 9 7 11 12 5 4 8 8 7 12 8 4 4 4 4 6 6 7 7 6 11 8 5 6 5 7 7 6 5 7 4 4 5 8 9 9 10 9 7 5 5 6 3 2 4 6 6 4 3 4 4 8 8 9 10 8 8 10 11 10 11 11
19 19 20 20 20 25 21 8 4 12 15 6 4 13 13 14 14 1 4 4 4 5 3 2 3 5 6 7 8 8 4 4 10 12 8 12 12 6 3 2 1 5 6 5 4 3 6 4 6 6 6 6 6 6 5 8 5 5 6 10 13 11 10 9 7 3 1 5 4 3 2 5 6 5 1 5 8 8 7 8 10 9 10 11 11 11 11 11
19 19 19 19 19 21 13 5 12 15 5 1 10 13 11 15 12 3 3 5 3 4 1 1 2 5 5 7 10 8 3 3 5 11 11 12 10 5 5 4 2 4 4 3 1 3 4 4 5 5 5 5 5 5 6 10 7 5 6 8 9 9 9 9 7 5 4 3 3 2 4 3 4 4 3 3 10 9 8 9 9 9 10 10 11 12 12 12
19 18 18 18 17 16 12 12 14 8 1 6 13 11 11 14 6 4 4 3 3 2 2 1 1 4 2 7 12 6 3 3 4 6 11 16 11 4 5 7 6 6 4 5 3 4 2 5 6 6 4 4 6 7 8 11 6 8 7 7 7 9 9 9 6 4 2 1 4 5 2 1 5 4 4 5 8 9 10 12 12 11 12 11 10 11 11 11
19 18 17 18 18 16 11 11 10 6 6 11 12 11 12 10 3 4 4 1 3 2 1 1 1 1 2 5 9 5 2 2 2 2 7 12 10 5 5 7 7 6 4 5 7 6 2 6 7 6 5 5 8 9 8 13 8 8 6 5 4 4 3 3 4 4 1 1 5 8 1 2 4 4 4 5 4 7 9 10 11 10 11 12 10 10 12 11
18 18 17 17 18 15 8 10 12 7 8 11 11 12 10 5 4 4 1 3 3 2 1 1 3 4 3 4 6 6 3 2 1 3 4 3 5 3 1 2 4 3 1 1 6 6 4 3 4 5 5 6 9 9 8 15 12 3 4 4 3 1 3 2 2 4 3 1 7 9 5 4 2 3 1 2 2 6 8 7 8 9 9 10 10 10 12 12
20 20 18 16 15 11 7 7 6 4 8 11 12 10 5 3 4 4 3 4 3 3 3 4 5 7 3 3 4 4 3 2 2 5 4 2 4 3 1 2 3 2 1 3 5 5 5 3 3 4 6 6 6 6 4 10 10 3 3 3 3 3 3 4 4 4 3 4 7 7 5 6 2 4 2 2 5 6 10 11 12 14 13 12 11 10 11 12
22 21 19 17 15 13 10 6 2 5 9 9 8 5 4 3 1 2 3 4 3 2 4 5 7 9 7 4 4 4 2 2 2 4 5 4 5 5 4 4 4 1 1 3 3 5 5 4 4 4 6 7 6 4 3 1 5 5 3 4 2 2 3 2 2 1 2 6 6 4 2 4 3 5 4 5 6 8 12 14 16 18 15 13 12 11 11 11
22 21 18 15 13 16 14 7 6 7 7 5 4 4 6 3 2 4 3 3 1 2 4 5 9 11 8 4 2 4 3 2 3 3 4 5 5 6 6 4 5 4 2 4 3 3 4 5 5 3 5 5 7 5 2 1 4 6 5 4 4 2 1 2 3 0 2 5 4 4 1 1 3 4 5 8 7 9 11 10 12 14 12 10 9 9 8 6
21 18 14 10 11 14 12 6 4 3 3 2 3 5 5 2 4 3 2 2 3 4 6 7 11 10 5 3 2 3 3 1 2 3 2 4 5 5 5 3 4 4 3 3 2 3 2 4 4 5 3 2 6 8 6 5 5 5 5 6 5 4 4 3 3 3 3 3 3 4 1 2 2 3 6 8 4 3 5 4 5 7 8 9 9 8 5 1
18 14 11 9 9 9 6 5 5 2 0 3 6 5 3 4 3 1 1 3 3 5 8 9 7 5 4 3 4 2 1 1 1 3 2 3 5 5 5 6 6 4 4 3 2 1 3 5 7 5 3 2 3 5 5 6 2 2 2 5 3 5 6 2 3 5 3 1 2 3 0 1 3 3 7 6 5 6 7 7 8 8 8 10 10 9 8 10
16 11 7 6 5 2 5 10 9 5 3 5 5 2 3 4 2 2 1 3 3 5 9 9 4 2 5 4 4 7 4 1 0 1 2 3 4 4 3 4 6 7 6 4 3 1 2 5 7 4 4 4 5 5 4 4 3 1 2 3 3 4 7 4 2 0 2 2 1 1 1 2 2 2 7 7 5 7 8 9 10 9 7 6 6 9 10 8
17 11 3 3 2 5 9 11 10 6 4 6 4 2 3 3 3 2 2 3 3 4 4 4 3 2 3 4 4 7 5 1 1 0 2 1 2 3 2 1 2 8 9 4 2 3 3 4 6 4 6 8 4 3 1 1 4 4 2 5 2 3 4 4 2 3 4 2 2 2 1 2 2 0 5 6 3 6 8 9 10 9 8 6 5 4 3 3
16 8 3 1 6 10 11 11 9 5 4 5 2 2 2 2 2 1 3 4 3 4 2 1 3 1 3 4 4 6 5 3 1 0 1 1 2 2 2 1 2 1 6 7 2 2 3 3 7 4 5 6 3 3 2 5 1 4 4 3 3 2 0 1 2 1 1 2 1 2 1 1 2 2 3 4 1 2 5 7 9 10 10 9 6 4 6 5
9 3 3 1 10 13 12 11 6 3 5 3 1 2 2 3 4 3 3 4 2 2 2 3 2 2 4 3 4 5 5 4 3 2 2 1 2 2 3 2 1 3 2 7 5 2 2 1 6 5 3 3 5 4 1 5 5 3 2 1 2 3 4 2 2 3 3 3 2 0 1 2 3 3 3 5 4 3 3 1 4 8 8 5 5 6 5 3
2 2 2 1 11 16 13 8 3 5 3 1 2 3 2 2 3 4 5 4 2 2 3 3 2 3 4 4 4 4 3 2 2 2 2 1 2 2 1 2 2 1 3 5 4 1 2 2 3 6 5 3 2 0 4 4 0 2 2 1 2 1 2 2 1 2 4 4 3 3 1 4 4 2 3 5 3 5 7 6 5 2 3 6 6 6 6 4
2 3 1 1 12 18 11 5 3 2 2 1 2 2 3 2 3 5 5 4 3 3 4 4 4 3 3 3 3 3 2 2 1 2 1 2 2 1 2 3 3 2 2 5 3 1 1 2 2 4 4 1 3 3 2 4 6 5 3 2 1 2 3 3 1 2 2 4 4 5 3 5 4 2 3 3 1 4 6 6 7 8 7 6 3 5 7 7
3 3 1 3 14 17 8 3 1 1 1 2 2 3 3 3 3 3 3 3 3 3 3 4 4 4 4 3 3 3 2 2 2 2 1 3 4 3 3 5 5 4 3 2 1 1 2 4 3 2 3 4 6 4 3 1 6 8 3 2 3 2 3 4 3 3 1 3 2 4 2 4 3 2 2 2 4 5 6 5 6 7 8 7 5 6 7 7
3 1 1 7 15 12 5 2 3 2 1 3 2 3 3 2 2 2 3 2 2 2 1 2 3 3 3 3 2 2 1 0 2 2 1 1 1 3 2 3 4 2 3 2 2 1 1 3 2 2 3 4 6 6 6 5 4 6 3 2 2 1 1 4 5 3 3 2 2 3 1 3 2 2 2 3 5 6 6 5 5 6 6 5 5 6 7 6
2 1 1 5 8 5 3 0 2 2 3 3 3 3 4 2 2 2 3 2 2 1 1 2 3 2 3 2 1 2 1 2 0 2 1 1 2 4 5 5 3 2 2 3 3 1 0 0 3 2 2 4 5 6 6 5 4 2 1 2 2 2 3 2 1 3 3 2 3 5 2 4 1 2 3 4 5 6 6 5 5 6 6 5 4 4 5 5
2 0 1 2 2 2 3 3 3 2 3 3 3 4 4 3 3 3 3 3 3 1 1 3 4 3 3 2 2 3 3 2 1 3 2 2 2 4 6 7 5 3 1 2 3 3 2 1 3 4 3 2 2 2 3 3 2 2 1 3 4 4 4 2 1 4 2 1 3 4 3 2 2 2 4 5 5 6 5 5 6 6 6 5 3 3 4 4
2 1 1 4 5 4 1 0 4 3 1 1 2 3 3 3 4 3 2 2 2 2 1 3 3 2 2 4 4 4 5 3 2 3 4 4 3 3 5 7 8 6 4 6 6 4 3 2 3 4 5 4 5 5 5 2 2 2 4 3 3 3 4 4 4 2 2 1 3 0 3 6 6 5 5 5 5 5 4 3 5 6 6 6 4 5 7 7
2 2 1 1 2 3 2 3 3 2 1 2 2 2 3 3 5 4 2 2 3 4 2 2 4 3 2 3 2 2 5 5 4 4 4 4 2 3 5 6 8 7 5 6 6 4 4 3 3 3 3 1 2 4 3 1 4 3 4 6 5 3 5 7 4 3 4 3 1 2 3 7 7 7 7 5 3 5 5 4 5 6 6 7 6 8 11 11
2 1 2 2 1 0 1 1 1 2 1 2 1 1 3 4 4 3 3 3 4 4 2 3 6 5 3 2 2 2 5 5 4 4 3 4 3 3 5 5 6 7 5 4 5 3 5 2 2 1 3 5 6 7 5 4 5 5 6 7 8 6 5 7 2 2 5 4 3 4 6 5 3 4 5 4 5 7 7 6 7 7 8 8 9 11 12 11
2 1 1 1 2 3 2 1 2 2 1 0 0 2 2 4 4 3 3 2 4 5 2 2 6 7 6 4 4 3 2 2 2 3 3 5 4 3 4 3 4 5 5 4 3 3 4 2 2 1 3 8 9 8 8 6 5 6 8 8 8 7 6 9 5 3 5 5 6 9 9 6 4 4 5 6 7 8 8 8 8 9 8 8 10 11 10 10
1 1 1 2 3 0 0 2 3 3 2 2 2 2 1 1 3 3 3 1 2 5 3 2 6 6 4 5 4 4 2 4 2 2 2 5 4 3 2 1 2 4 4 3 1 2 3 1 1 2 4 5 7 6 7 7 4 7 8 9 10 8 5 7 6 6 7 7 7 10 8 4 3 3 5 6 6 8 10 9 9 9 7 8 11 10 9 10
0 2 1 3 2 3 2 2 2 3 2 2 1 2 2 1 2 2 3 2 3 1 2 3 7 5 2 4 4 2 4 5 5 4 2 3 3 2 1 2 2 3 4 2 1 2 3 2 0 3 3 2 5 6 7 8 5 6 8 11 11 6 2 2 2 3 4 7 9 8 4 2 1 3 6 8 7 9 10 9 8 7 7 8 10 10 9 9
2 1 2 4 2 3 2 2 3 3 1 2 2 2 3 3 3 0 1 3 3 3 2 4 5 5 3 3 4 3 5 6 5 4 5 7 7 5 4 3 2 1 1 1 2 2 3 4 2 3 3 1 4 5 5 6 4 3 5 8 7 5 2 2 4 5 2 5 7 5 4 3 3 3 7 9 9 9 9 7 7 7 7 9 10 10 9 9
Wind_Direction
345 345 342 342 340 340 339 337 337 335 335 334 333 333 330 330 328 328 327 325 324 321 320 320 319 320 321 323 324 324 323 319 315 308 272 276 291 264 234 257 193 175 165 158 148 123 116 139 182 168 144 139 163 173 172 170 136 90 102 143 213 235 222 191 197 202 240 288 310 313 359 13 323 329 10 41 56 76 75 55 64 60 66 91 100 122 135 131
344 343 341 341 339 338 337 336 335 333 333 331 331 330 329 331 328 328 326 326 326 323 323 319 318 319 318 320 324 328 324 318 309 288 274 305 314 265 212 184 173 173 179 193 207 179 134 173 187 147 129 129 216 166 170 191 151 151 133 155 224 228 223 194 215 251 285 292 304 304 338 30 333 331 346 54 89 94 88 72 76 86 91 101 114 126 133 134
344 343 341 340 338 336 335 334 333 332 331 330 329 328 328 328 327 328 327 327 327 325 323 319 318 317 316 321 327 330 323 319 309 272 300 356 344 290 193 178 172 166 181 201 212 198 170 179 170 136 111 147 240 156 177 216 173 182 144 199 238 231 259 257 259 271 276 281 295 296 318 3 291 248 28 116 122 109 118 123 112 117 128 131 136 134 138 141
343 342 341 340 338 336 334 333 332 330 330 329 328 328 327 326 326 326 326 327 326 326 323 319 317 314 318 324 327 330 327 325 296 264 349 3 349 333 179 178 175 159 165 159 178 194 177 145 158 142 105 175 291 132 182 227 195 182 161 215 242 233 274 266 254 265 271 273 277 292 312 315 274 183 147 145 116 60 165 163 151 149 148 144 148 142 145 148
342 341 341 339 337 336 334 332 330 329 328 328 327 326 325 325 325 324 325 326 325 325 323 320 316 316 322 327 334 336 338 5 295 293 337 342 343 343 172 174 174 164 160 151 145 169 166 127 144 136 87 170 251 145 222 231 170 205 212 232 249 245 270 276 273 268 271 282 294 299 296 296 309 111 165 165 150 198 195 181 161 153 155 153 152 150 150 153
341 340 340 338 337 336 333 332 329 328 326 325 324 323 323 322 322 322 322 322 322 322 322 323 320 321 329 337 349 355 18 306 293 302 315 314 327 335 168 170 172 165 164 166 158 151 158 128 122 146 116 158 209 197 254 256 153 232 262 247 245 229 248 282 291 276 280 295 292 283 287 305 350 77 191 194 197 188 175 170 160 151 152 151 149 153 154 155
341 339 339 337 337 335 333 331 328 327 324 323 322 320 319 318 319 318 317 318 319 321 322 323 324 325 337 352 8 42 90 258 282 301 317 313 311 303 169 173 172 169 171 169 163 151 150 130 135 158 121 147 215 206 258 265 168 204 261 268 255 240 239 262 267 273 281 276 272 279 311 303 278 239 206 223 201 132 143 145 145 139 139 145 149 152 155 157
340 338 338 337 335 333 332 329 328 327 324 321 319 318 317 315 315 314 314 315 316 319 320 321 324 331 345 358 51 8 273 251 286 308 309 304 287 192 166 175 178 175 177 181 177 156 144 139 167 167 124 209 196 200 250 272 247 215 242 265 266 258 251 260 267 275 279 270 274 289 294 278 260 199 159 231 169 133 133 133 137 141 143 151 155 153 155 158
339 337 336 334 333 331 330 328 326 324 322 319 317 317 315 314 313 313 313 313 315 316 316 318 318 337 358 1 73 347 268 253 305 316 304 290 264 184 165 175 182 182 181 192 185 159 160 167 194 183 152 212 200 222 227 172 261 218 224 251 260 273 269 269 275 270 271 267 270 281 273 271 262 154 57 312 158 132 126 135 144 149 155 161 158 157 157 155
337 336 335 332 331 329 328 326 324 322 321 319 317 316 314 314 312 311 311 310 313 312 313 314 311 334 343 346 83 330 269 293 337 349 358 305 224 184 175 179 184 186 181 189 186 175 178 176 188 175 144 220 211 224 200 171 228 221 225 256 250 264 270 264 266 266 273 275 247 246 262 273 284 140 108 92 145 129 127 140 152 156 165 166 157 157 155 152
336 334 333 331 330 328 327 325 324 323 320 318 316 314 313 313 312 312 314 311 308 308 310 306 306 324 284 114 111 237 261 326 22 47 38 23 248 199 200 199 190 190 183 180 197 196 191 171 153 115 134 254 245 260 240 194 229 254 255 294 278 270 276 260 260 267 272 275 232 211 252 281 324 154 169 156 147 140 139 147 160 166 172 167 160 160 155 151
335 333 332 331 330 328 326 324 324 322 319 318 315 313 313 312 315 317 316 312 305 303 304 299 295 213 289 71 203 239 254 289 276 2 340 317 305 278 246 225 207 203 195 184 210 208 195 166 128 138 212 258 332 309 260 226 251 264 241 305 296 313 302 260 249 242 192 247 225 171 271 299 309 237 170 149 150 149 147 153 164 171 174 165 163 166 160 154
336 334 333 331 329 327 326 325 323 321 319 318 315 315 314 315 319 319 315 309 297 294 294 286 267 203 262 257 238 259 275 275 276 281 282 286 290 280 262 244 232 225 216 209 220 213 199 183 158 182 226 31 272 268 279 292 309 272 246 240 300 336 306 264 249 224 186 241 199 140 278 282 270 252 166 147 150 150 152 160 167 169 165 158 165 167 158 158
337 335 333 331 330 328 327 326 324 322 320 318 318 318 317 320 321 315 308 296 280 284 279 254 211 174 187 255 268 281 286 281 276 269 263 263 269 268 258 245 241 238 229 227 235 222 201 198 184 215 278 218 244 287 317 324 358 307 293 276 313 301 280 290 295 234 212 264 149 146 218 248 260 254 167 155 154 155 161 168 169 166 163 161 166 169 164 168
337 336 334 332 331 329 328 327 325 323 321 319 320 320 320 322 318 309 297 272 262 266 218 177 185 174 339 278 281 292 288 278 269 257 244 239 239 249 250 233 234 238 232 232 237 229 187 182 174 250 265 244 238 303 322 330 359 5 285 289 319 208 268 306 296 220 220 279 112 146 212 255 261 245 172 161 161 161 163 171 175 169 168 165 163 166 169 173
336 335 334 333 331 330 329 326 326 323 321 321 321 322 323 322 315 303 277 236 227 197 171 159 198 184 307 281 293 305 270 248 258 254 230 221 216 224 234 219 228 233 229 235 240 241 196 144 177 207 245 269 211 196 339 337 328 357 205 255 282 265 294 321 303 262 218 254 57 165 195 251 268 245 169 166 167 168 167 172 177 175 173 166 158 164 170 174
335 336 335 334 332 330 328 326 326 323 323 325 322 323 327 327 317 284 202 169 164 162 151 121 181 191 258 274 294 301 272 231 239 256 225 211 208 217 220 186 221 223 219 236 245 245 228 127 235 233 261 268 159 123 29 278 271 318 358 259 261 257 274 310 303 304 347 220 260 224 196 228 266 263 161 172 171 168 174 174 177 180 175 161 150 162 172 167
335 337 335 333 331 329 327 327 325 325 327 325 323 327 331 344 7 102 135 123 104 116 136 26 68 181 261 263 279 287 304 320 296 292 242 207 204 212 214 199 199 148 168 248 241 205 204 218 225 321 304 220 133 121 184 227 199 202 294 258 282 283 261 264 262 294 353 352 251 267 266 251 266 271 161 176 176 172 182 178 177 180 169 156 152 165 171 156
335 338 336 333 331 329 327 327 326 330 330 323 326 334 337 54 70 90 118 124 110 108 203 212 175 182 266 250 255 290 307 312 303 289 230 202 201 212 220 218 175 121 124 297 259 201 190 246 319 244 248 204 185 172 186 203 156 177 202 182 254 293 275 260 244 262 315 320 277 261 264 258 263 264 174 173 182 180 185 173 169 175 162 152 159 170 165 153
336 337 335 333 331 329 327 327 328 332 330 323 330 346 11 48 39 45 87 172 206 221 240 204 190 232 283 281 291 319 312 304 289 276 208 191 183 188 218 218 164 133 143 164 223 235 144 193 240 225 202 168 197 205 189 206 269 298 272 243 257 271 276 277 271 271 292 311 278 257 260 263 261 262 190 167 181 182 181 167 170 176 166 164 169 171 157 149
335 336 335 333 330 329 327 326 329 332 326 322 337 3 48 15 6 322 313 262 234 224 245 238 213 235 257 264 279 340 340 314 275 290 274 195 160 146 207 191 172 226 220 175 204 314 121 204 239 206 177 182 206 204 183 213 278 276 270 288 283 258 268 278 277 280 287 207 268 275 279 272 260 260 192 158 171 182 182 176 180 177 168 171 171 166 152 142
334 336 334 331 329 328 326 326 330 327 322 334 0 27 229 301 337 314 304 295 269 219 228 242 233 248 251 251 260 274 334 293 288 298 281 171 154 157 198 169 168 219 246 141 153 286 225 234 250 215 187 197 232 199 154 198 233 237 252 287 279 268 287 290 281 284 284 148 263 282 276 268 265 260 181 164 173 184 188 184 180 173 169 177 175 165 150 139
334 336 335 331 329 327 325 328 329 321 326 354 330 272 293 330 338 323 293 297 285 225 212 231 226 247 249 248 246 219 215 228 253 286 223 153 167 172 167 166 176 196 187 166 187 212 236 250 241 217 186 173 251 253 152 190 254 221 213 228 264 273 295 284 290 300 296 239 266 285 290 274 277 278 176 178 182 183 193 189 178 171 172 176 170 158 146 142
334 337 334 330 329 326 326 329 327 297 332 329 300 292 334 339 344 335 209 223 281 243 215 218 204 230 241 234 198 181 209 204 189 257 206 156 155 147 164 170 162 186 201 190 191 206 238 245 192 158 164 171 224 249 179 196 260 240 209 202 242 260 240 240 278 311 326 313 270 293 325 297 296 305 167 174 185 179 186 177 161 162 158 150 145 140 138 144
335 335 331 330 330 325 327 331 320 285 326 319 295 332 344 341 347 345 166 2 286 274 257 222 201 230 224 183 168 170 190 207 199 227 188 164 167 140 179 180 148 195 207 187 185 213 244 242 129 127 165 174 205 238 199 182 224 270 226 203 216 239 244 249 279 318 353 326 283 76 3 300 306 311 160 138 155 171 172 163 162 160 144 141 142 140 139 148
333 331 329 330 329 329 334 335 313 326 325 313 338 342 337 338 349 26 143 29 297 280 308 203 177 207 194 158 157 139 114 235 213 208 193 182 180 150 163 202 155 200 193 174 177 221 244 209 147 167 181 176 202 239 208 168 179 264 235 203 210 225 240 251 259 255 280 279 265 91 106 264 307 333 225 156 150 156 163 164 165 158 150 151 151 150 151 156
329 327 328 327 329 337 340 306 314 325 321 316 340 337 329 337 351 128 114 22 307 267 204 176 171 184 185 165 155 136 153 251 192 198 200 187 180 152 172 192 169 197 174 132 200 241 214 183 175 181 171 178 207 240 207 160 152 245 227 183 198 215 223 233 225 212 232 270 299 45 125 212 288 320 331 119 133 141 157 161 163 159 154 151 151 158 159 159
325 324 325 322 325 329 311 290 304 311 263 322 330 330 326 333 348 128 81 34 286 270 188 244 206 173 158 162 167 170 214 155 127 209 196 181 178 150 184 200 185 197 167 129 209 254 189 190 201 182 168 185 213 228 191 151 165 244 216 166 197 213 210 214 198 198 246 354 310 309 93 168 267 285 346 58 118 146 166 168 168 164 158 155 153 157 158 159
322 321 320 320 320 317 300 272 269 276 309 322 329 328 322 325 354 88 71 45 271 296 213 264 290 207 83 150 194 239 292 119 146 204 166 176 186 159 188 205 181 193 184 156 211 251 227 199 186 160 172 205 230 237 174 156 200 238 197 173 215 210 196 201 158 145 75 49 264 272 223 156 272 297 12 46 115 162 174 174 170 162 159 160 154 154 161 164
320 316 317 319 314 313 302 263 263 292 331 328 330 327 320 333 48 73 87 249 265 300 306 16 357 358 73 152 222 252 265 317 19 110 98 152 186 168 181 161 128 144 188 232 238 250 268 220 169 159 195 211 231 241 181 179 204 197 141 194 238 341 43 55 92 103 92 283 255 251 217 152 269 291 51 55 235 184 168 164 166 162 159 161 159 161 169 168
319 315 315 310 299 296 293 269 272 346 342 328 328 328 338 35 66 102 207 252 272 312 343 8 4 0 1 209 241 254 244 295 39 111 108 106 147 170 351 75 93 77 5 310 279 285 312 283 229 222 218 210 222 246 211 193 201 144 104 169 213 296 11 35 3 53 112 248 262 252 204 141 156 259 247 264 258 205 173 166 168 170 168 169 171 168 170 168
319 317 312 298 278 258 248 246 280 324 320 323 332 352 69 67 28 188 241 301 327 331 346 348 341 336 314 262 226 233 226 219 189 141 145 146 153 184 203 187 175 125 297 255 263 307 305 248 262 288 242 206 192 245 309 156 167 149 116 89 110 290 356 14 302 55 184 241 260 265 198 144 196 241 273 304 270 220 193 179 175 175 172 171 173 170 170 167
319 319 313 296 264 243 245 266 289 293 303 324 349 37 83 93 227 227 273 320 312 314 341 335 323 319 310 301 240 212 193 216 227 174 151 148 159 198 221 207 165 150 213 212 208 284 297 293 294 299 272 212 166 180 237 177 160 159 159 133 133 143 65 296 270 238 247 241 253 279 239 207 265 270 319 321 276 220 203 193 182 173 160 152 152 153 153 146
321 322 313 287 256 253 263 275 265 264 300 347 46 65 91 146 230 244 293 276 266 323 350 337 321 320 325 327 291 205 171 256 230 157 139 132 151 202 232 227 173 148 163 179 180 192 214 306 267 206 257 238 176 186 182 161 158 174 166 137 139 151 150 228 230 184 231 240 292 320 346 159 239 290 323 322 305 178 165 165 151 139 125 113 98 88 88 147
326 326 306 277 264 272 259 200 182 179 173 64 64 75 138 199 249 248 266 283 309 343 337 326 318 325 337 317 306 335 119 220 201 120 135 158 169 191 204 207 195 153 132 171 223 183 166 252 254 234 250 243 220 216 157 122 125 222 145 107 138 182 158 189 203 175 191 175 358 336 357 193 227 286 336 352 42 80 108 117 116 127 130 122 119 130 167 204
329 331 300 265 260 261 160 158 154 153 134 83 72 101 191 213 226 180 260 324 336 331 329 330 338 355 337 326 324 346 13 145 45 93 160 188 189 193 197 214 196 174 159 166 213 185 136 254 273 308 298 250 232 226 173 152 182 208 131 151 211 173 135 133 215 264 72 128 309 329 177 313 327 353 352 6 65 99 118 122 125 132 119 109 152 175 183 197
333 341 324 255 205 150 152 153 144 138 103 80 102 196 222 227 208 190 332 341 295 305 348 351 328 320 339 340 321 329 346 352 356 33 215 234 223 196 187 248 192 184 181 162 220 215 163 258 282 311 291 272 234 193 205 155 143 126 177 204 190 79 94 112 149 12 37 154 264 339 183 295 19 84 329 349 76 126 138 133 127 129 129 148 197 185 126 90
329 337 344 287 162 154 155 154 145 128 80 73 115 232 220 226 257 269 330 331 296 313 13 236 275 307 7 344 303 305 315 296 292 193 202 233 250 201 155 155 6 222 179 154 191 252 149 257 290 277 254 287 350 82 6 331 40 132 174 181 110 104 225 91 135 134 99 166 269 342 311 259 178 198 298 314 269 152 157 150 142 152 163 173 173 105 69 56
327 350 3 96 155 158 159 158 144 73 65 75 186 246 228 245 272 278 293 304 287 294 284 221 229 317 329 299 265 290 296 250 222 199 174 177 246 218 136 148 37 9 90 133 158 236 128 173 285 282 257 320 4 55 121 305 335 58 123 55 52 137 166 171 153 152 148 156 185 106 348 264 224 231 280 279 292 24 22 314 172 170 164 135 111 98 84 58
340 78 12 127 160 165 159 145 81 48 73 128 193 221 261 267 271 274 273 278 265 251 262 252 261 288 285 272 263 277 280 236 210 200 198 201 233 227 158 133 120 62 48 82 125 168 73 125 252 290 327 14 7 225 183 195 339 45 95 34 347 37 126 156 155 114 132 145 162 155 204 260 248 264 285 274 298 56 45 8 353 349 87 90 105 121 121 120
42 79 354 207 168 168 148 95 35 62 115 221 210 226 281 294 287 291 278 266 258 241 240 255 267 259 253 273 275 261 286 310 235 180 212 208 170 225 213 158 145 152 52 36 49 106 77 129 185 291 332 345 253 269 199 162 131 125 129 102 181 195 125 126 274 312 107 125 161 157 185 263 272 314 310 303 62 82 65 48 31 18 26 48 85 116 116 116
65 73 341 169 167 163 127 61 297 91 132 234 247 249 284 295 282 293 296 282 260 240 241 252 257 253 237 238 248 250 294 314 253 208 221 197 173 217 222 163 158 168 131 88 297 211 133 106 109 278 268 239 263 314 340 340 103 105 100 96 134 137 98 125 190 252 97 103 143 119 119 263 280 326 338 31 82 80 56 51 72 66 40 20 28 67 75 76
97 61 83 148 167 163 90 26 306 1 263 255 288 270 276 287 277 297 313 314 289 258 275 270 268 274 253 240 250 253 251 289 252 241 223 187 218 266 286 110 124 125 115 149 249 257 93 76 64 305 302 303 310 333 330 321 61 82 55 55 92 50 113 154 172 173 139 153 150 86 64 256 276 349 5 64 86 87 66 40 62 88 79 49 40 52 62 67
133 252 119 142 179 177 84 152 270 315 280 306 341 307 296 281 253 287 294 289 289 296 325 284 281 286 275 277 278 271 281 110 74 321 34 68 336 328 11 52 87 83 97 183 196 169 225 68 82 67 7 345 335 337 330 330 13 69 95 74 53 33 83 139 152 86 105 187 149 123 198 255 280 33 47 80 90 91 84 71 67 72 77 80 77 77 89 98
90 66 307 350 12 95 119 178 169 194 272 334 347 314 318 306 267 262 255 255 261 269 273 265 266 267 285 334 355 316 340 81 104 340 25 54 351 353 18 36 64 71 74 144 122 103 136 151 110 121 146 179 218 268 264 274 343 349 9 85 79 52 54 101 115 76 99 222 94 121 186 213 134 110 92 99 107 102 96 94 92 86 80 82 86 89 90 80
101 93 306 339 12 52 77 164 115 130 242 16 14 318 320 314 296 279 255 260 289 309 269 265 292 317 339 9 14 340 347 13 32 29 28 14 358 346 2 34 55 49 45 60 56 72 115 82 60 115 142 177 210 235 240 198 89 13 336 15 72 83 69 83 84 77 148 120 37 346 177 147 152 157 128 115 110 103 99 93 92 91 85 80 71 66 66 57
100 112 150 170 345 14 12 356 57 87 207 141 80 338 320 318 311 315 336 336 317 321 310 309 355 29 357 343 28 357 338 349 20 37 14 350 347 330 348 33 44 22 30 45 25 53 103 50 17 82 99 128 256 282 299 86 91 64 10 2 354 5 69 78 85 133 140 111 352 280 139 131 151 150 130 126 105 87 75 64 72 74 73 74 69 66 65 59
98 152 163 149 159 45 31 354 85 104 149 157 127 333 329 337 337 335 334 328 325 337 9 355 353 9 345 319 119 53 343 359 20 11 358 351 348 344 358 26 24 11 37 42 10 71 106 55 349 69 44 20 12 4 19 75 90 60 41 25 359 357 67 91 99 168 138 138 181 157 110 98 104 90 83 76 73 76 67 56 63 65 64 66 64 64 65 62
81 91 305 40 113 172 189 150 107 90 51 182 299 318 331 350 350 329 311 334 340 340 49 39 337 342 346 353 102 91 360 54 31 333 354 360 349 9 15 359 344 3 48 56 17 82 103 52 349 40 42 23 15 18 30 45 76 62 39 31 23 23 78 101 103 106 101 105 129 121 99 68 25 28 52 65 74 81 74 62 64 64 60 65 67 66 66 64
91 130 294 39 64 115 217 48 69 62 5 354 351 311 279 351 341 313 312 29 357 329 5 26 323 323 341 1 71 112 166 146 156 270 350 360 348 18 27 309 307 348 22 56 14 45 87 115 292 65 65 15 360 26 32 10 38 71 40 19 20 25 61 91 101 103 87 81 98 105 96 70 17 33 69 75 77 86 83 75 73 68 57 65 71 68 65 64
73 180 153 103 64 345 3 24 60 82 15 354 353 293 300 326 326 304 299 249 185 248 332 318 306 307 337 13 44 150 209 185 182 219 256 283 277 289 297 247 262 330 354 28 4 20 70 127 115 65 85 353 351 22 9 344 6 52 29 5 2 2 22 57 64 93 120 128 122 115 117 107 73 78 80 70 66 76 78 75 76 69 51 60 70 64 59 58
7 16 62 101 84 344 14 25 25 69 36 287 238 265 298 314 316 111 281 275 213 189 236 257 282 309 341 345 328 284 250 227 204 207 214 220 233 251 259 252 246 223 194 106 45 29 88 123 121 78 101 13 8 28 1 347 10 24 360 351 335 303 291 3 13 6 26 139 138 145 153 113 76 75 79 69 59 60 62 57 58 61 58 63 65 59 55 54
Height
801 800 799 798 797 796 795 794 793 792 791 789 788 787 786 785 784 783 782 781 780 779 778 777 776 775 774 773 772 770 768 766 762 763 761 750 746 749 749 750 749 751 754 754 756 757 759 760 761 762 764 765 766 766 767 767 768 772 780 787 788 783 777 770 765 762 759 755 751 746 748 752 748 744 740 738 742 745 748 749 747 746 746 748 751 755 759 762
801 800 799 798 797 796 795 794 793 791 790 789 788 787 786 785 784 783 782 780 779 778 778 777 776 775 774 773 771 770 767 764 762 759 753 745 745 747 748 749 750 751 752 753 755 756 758 760 761 762 763 765 766 765 767 766 767 773 780 786 783 775 768 762 759 757 755 755 752 747 749 751 749 747 743 747 754 750 752 756 753 752 753 754 754 758 761 762
801 800 799 798 797 796 795 794 792 791 790 789 788 786 785 784 783 783 781 780 779 778 777 776 775 774 773 772 771 770 767 765 760 753 746 744 744 744 746 749 750 751 752 753 754 756 758 758 760 762 764 765 766 765 767 765 767 770 776 783 776 766 763 758 757 756 753 753 753 750 748 749 748 744 745 752 757 753 754 755 756 758 757 757 758 758 761 762
801 800 798 798 797 795 794 793 792 791 790 788 787 786 785 784 783 782 781 780 779 778 777 776 775 773 772 771 770 769 767 764 755 746 744 744 744 743 745 747 749 751 752 753 754 756 757 758 760 761 764 767 766 766 767 765 766 768 772 776 767 761 762 756 755 753 750 750 751 751 748 748 744 740 745 751 755 759 756 748 747 753 754 756 759 760 761 762
801 799 798 797 796 795 794 793 792 791 789 788 787 786 785 784 783 782 781 780 779 778 777 776 774 773 772 771 770 769 769 764 750 743 745 744 744 743 744 746 749 750 752 754 754 756 758 759 760 762 764 767 767 767 767 762 763 768 768 765 761 761 761 754 753 752 748 748 750 751 749 744 740 741 746 747 749 753 750 742 740 743 746 750 755 758 760 762
800 799 798 797 796 795 794 793 791 790 789 788 787 786 785 784 783 782 781 780 779 778 776 775 774 772 771 770 770 769 770 763 748 744 745 743 744 743 744 746 749 751 752 754 754 756 758 759 761 764 765 766 768 767 766 762 762 768 766 760 759 760 759 754 751 750 748 749 750 748 745 741 743 745 744 744 743 742 739 739 741 742 744 747 751 756 759 762
800 799 798 797 796 795 793 792 791 790 789 788 787 786 785 784 783 782 781 780 779 777 776 775 773 772 771 770 770 770 772 761 745 745 745 743 745 743 745 747 748 751 751 753 754 756 757 759 762 763 765 767 767 766 764 762 762 767 766 759 757 757 756 753 750 748 747 749 747 744 744 742 746 746 743 743 741 738 738 741 744 745 747 751 754 757 759 761
800 799 798 797 795 794 793 792 791 790 789 788 787 786 785 784 783 782 780 780 778 777 776 774 773 772 771 771 770 770 769 756 744 744 744 743 745 744 745 747 749 750 750 753 753 755 757 760 761 761 766 767 765 765 762 763 764 765 764 758 756 755 752 750 749 748 747 747 744 744 746 742 742 744 744 744 740 737 739 744 747 749 751 753 757 759 761 762
799 798 797 797 795 794 793 792 791 790 789 787 786 785 784 782 782 780 779 778 777 777 776 774 773 772 772 771 771 769 758 748 744 744 743 743 745 745 746 746 749 749 750 753 753 755 756 758 760 759 763 764 762 763 761 766 767 761 759 757 755 754 750 749 749 747 746 745 743 745 746 739 737 741 746 746 742 738 740 746 749 751 754 755 758 760 760 762
799 798 797 796 795 794 792 791 790 788 787 786 785 784 783 781 780 779 778 778 777 776 775 775 773 772 773 770 772 767 750 744 746 744 743 744 744 746 746 747 748 749 751 752 753 754 753 755 756 755 759 760 760 761 760 764 762 755 755 756 754 754 750 748 748 745 745 744 742 745 743 737 735 741 749 749 743 741 744 750 751 752 755 756 759 760 761 762
798 797 797 795 794 793 791 790 788 787 786 785 784 783 781 780 779 778 777 777 776 775 775 774 773 773 772 770 772 764 747 744 746 743 744 745 746 747 747 747 748 748 750 751 751 750 751 753 753 755 760 760 759 759 757 756 754 752 754 754 752 752 750 748 748 745 745 743 738 741 741 737 737 740 746 746 743 744 746 751 753 754 756 756 759 760 760 762
798 797 796 794 793 792 791 789 787 787 785 784 783 781 780 779 778 777 776 776 775 774 774 774 773 773 772 771 767 755 745 746 745 744 745 745 747 748 748 749 748 748 748 749 749 748 751 752 753 757 758 758 760 761 755 751 752 751 752 756 753 751 750 746 745 743 744 742 734 738 746 745 741 740 741 742 743 745 748 752 754 755 756 757 759 760 760 761
797 796 795 794 792 791 790 788 787 785 784 782 781 780 779 777 776 776 774 774 773 773 773 773 773 773 774 767 753 744 744 746 745 744 745 745 746 746 747 748 748 749 748 747 747 747 751 752 753 755 755 758 761 758 752 749 752 752 752 756 757 757 753 744 742 741 741 739 731 739 756 753 741 739 741 741 743 747 752 754 754 756 758 759 761 762 762 762
796 795 794 792 791 790 788 787 785 784 782 781 779 778 777 775 775 773 773 772 772 773 773 773 773 773 774 760 743 741 743 743 743 742 743 744 745 745 745 746 747 748 748 748 747 748 750 752 753 754 755 756 756 753 753 754 753 754 755 757 762 766 757 744 742 742 741 738 731 740 758 753 739 738 742 741 742 746 752 754 754 757 758 760 762 763 764 763
794 793 792 791 790 788 787 785 783 782 780 779 777 776 774 773 772 771 771 770 771 772 771 773 773 773 773 757 740 740 741 740 740 738 741 743 743 743 743 744 746 746 747 748 748 749 750 752 755 757 755 753 753 758 761 759 756 758 762 763 765 767 761 748 741 741 741 737 733 742 756 752 739 738 741 741 743 745 750 753 754 756 758 759 761 764 764 763
793 792 791 790 788 787 785 783 782 780 779 777 775 774 772 771 769 769 769 769 770 770 771 773 772 773 771 753 739 738 738 738 737 736 739 740 741 741 741 743 745 745 747 747 748 749 750 752 754 754 754 753 756 760 764 766 764 764 768 769 766 766 765 755 743 739 739 738 737 742 750 749 739 736 740 741 743 746 749 752 754 756 757 758 761 763 764 764
792 791 790 788 787 785 784 782 780 779 777 775 773 772 770 768 766 766 767 769 770 769 771 771 771 774 763 744 739 738 736 735 735 736 737 737 738 739 741 743 744 745 746 747 748 749 750 752 753 754 754 756 758 761 770 776 773 771 772 771 768 766 765 761 750 740 738 741 742 741 745 746 736 734 742 742 741 746 750 752 753 755 756 758 761 764 764 766
791 790 789 787 786 784 782 781 779 777 776 774 772 770 768 767 766 766 767 768 770 771 772 771 773 772 754 740 740 738 734 735 735 736 736 736 737 738 740 742 743 745 747 749 749 749 751 752 754 757 757 758 759 763 773 777 773 773 772 770 769 766 763 763 757 744 740 742 744 745 747 745 737 735 743 743 741 746 747 749 751 753 756 758 761 763 764 767
790 789 787 786 784 782 781 780 778 776 774 772 771 769 767 767 767 767 768 769 769 767 765 765 766 760 745 738 738 736 735 735 734 734 734 735 737 739 740 741 743 746 750 753 752 750 751 753 757 761 761 761 762 762 766 768 766 767 768 770 770 768 764 759 755 746 741 745 745 745 746 743 737 735 741 743 742 744 746 748 752 753 756 759 761 762 763 766
788 787 786 784 783 781 780 778 777 776 774 771 770 768 767 768 768 767 768 768 764 758 754 755 756 749 742 738 736 737 735 733 733 732 732 734 735 739 741 742 744 747 751 754 754 750 751 758 761 761 761 761 760 760 761 762 763 764 767 769 770 771 765 756 752 745 740 747 746 740 742 741 736 734 737 742 743 745 748 751 753 753 756 758 759 761 762 765
787 786 784 783 781 780 778 777 776 775 773 771 770 769 769 771 771 770 767 762 755 753 751 750 750 746 740 736 736 738 738 735 733 730 732 733 733 740 743 743 749 752 752 752 753 751 753 760 760 757 758 756 755 758 761 762 764 765 767 769 769 771 764 753 751 745 740 749 747 739 742 740 733 732 735 739 743 745 746 749 751 752 755 757 757 760 761 763
786 784 783 781 779 778 777 776 775 774 772 771 771 771 771 771 772 771 769 763 751 748 749 745 746 743 735 735 736 739 743 742 736 729 729 732 734 740 743 744 751 754 752 752 756 758 760 761 756 753 754 754 756 760 763 765 764 767 769 771 771 767 762 753 747 743 740 747 745 740 743 739 729 730 734 737 739 739 737 738 742 746 751 754 755 757 759 762
784 782 781 779 778 777 775 774 774 772 771 771 771 771 770 769 769 768 769 768 753 741 742 741 742 739 732 733 734 738 744 743 740 732 727 731 734 737 741 746 751 751 752 755 759 764 765 757 749 750 753 755 759 760 764 766 766 769 770 772 772 766 766 760 749 744 741 744 743 742 745 739 730 729 732 735 734 732 733 733 735 740 744 748 751 753 756 760
782 781 780 778 777 775 774 773 771 771 771 770 770 768 768 767 767 766 766 766 754 737 733 731 732 732 726 727 730 735 738 737 737 731 725 730 734 736 739 743 749 752 753 754 756 762 760 749 743 748 753 756 758 759 764 767 768 769 767 770 769 762 763 762 753 749 745 745 745 746 748 740 730 731 733 735 735 733 734 737 740 743 743 746 751 754 757 759
780 780 779 777 776 773 772 772 770 771 769 768 767 765 766 766 765 765 764 765 756 738 730 727 727 724 718 722 727 728 733 733 729 725 722 726 730 735 738 739 745 752 753 752 756 760 754 744 742 748 753 755 758 759 761 765 768 768 763 761 761 757 757 757 755 756 756 753 746 747 757 749 729 730 736 736 739 739 738 740 744 745 746 749 752 755 757 760
779 779 778 777 776 772 771 770 770 770 767 766 765 763 765 764 763 763 765 770 761 739 730 728 726 720 715 721 724 726 735 731 720 720 721 723 724 730 738 739 741 747 749 750 754 754 747 741 741 746 750 754 758 759 757 759 768 768 756 749 751 752 755 756 757 760 760 756 747 746 762 760 735 728 738 739 740 744 742 743 745 745 746 749 752 754 755 758
779 778 777 777 775 774 773 771 770 769 766 765 763 763 763 761 762 761 764 776 764 737 729 729 726 719 714 718 719 725 734 724 716 719 718 721 723 725 736 741 740 742 742 747 755 749 740 740 743 745 748 754 758 757 751 752 764 762 745 740 747 750 753 754 755 758 755 752 749 747 756 760 744 735 742 743 743 747 747 746 746 745 747 749 751 753 754 755
778 777 777 776 775 776 775 773 771 768 765 764 762 762 760 759 761 760 769 780 756 727 725 725 720 715 714 717 717 719 720 715 718 721 714 717 722 724 736 739 738 740 736 745 756 746 736 740 743 744 750 754 751 745 743 748 755 747 735 739 743 743 747 748 751 756 754 754 753 748 751 758 749 740 745 748 748 751 749 747 746 745 746 748 750 753 754 755
777 776 776 775 773 774 774 773 770 766 764 763 762 761 758 759 759 761 779 778 744 721 721 719 717 716 717 721 720 716 714 712 717 717 713 718 720 722 733 734 733 739 736 740 748 741 735 735 735 740 747 747 740 734 737 745 745 734 732 739 739 741 746 745 749 752 754 761 758 746 747 753 749 743 745 749 752 753 750 746 744 744 746 747 748 752 753 755
775 775 774 774 773 772 772 770 766 763 763 761 761 759 757 759 761 773 786 769 739 727 720 718 722 722 722 727 725 720 718 715 713 714 717 720 720 721 726 727 730 738 740 740 741 738 734 731 731 735 737 734 730 729 732 735 732 728 734 740 741 745 746 746 751 750 757 767 754 741 744 748 749 749 748 749 750 750 748 747 746 745 746 747 748 750 752 753
773 772 772 772 772 771 771 768 762 762 762 761 760 758 757 762 770 782 778 752 737 734 726 726 728 725 727 731 728 723 721 718 714 717 722 723 726 728 729 732 735 741 746 745 742 738 735 734 732 727 724 725 726 728 728 728 729 732 737 741 745 750 748 752 756 756 767 768 746 739 744 744 748 750 751 751 747 745 743 742 743 744 745 746 746 748 750 752
770 769 769 769 769 769 768 764 761 762 762 760 761 758 760 770 777 777 762 744 742 742 737 736 733 729 729 728 726 723 722 721 716 718 724 726 731 733 732 736 739 747 755 752 746 741 736 733 730 724 719 719 726 732 732 730 732 737 740 743 752 759 760 763 765 765 769 759 745 746 745 743 748 748 750 751 747 743 738 732 733 737 740 743 744 746 748 752
767 766 765 765 765 764 763 761 761 762 761 760 761 760 765 775 775 766 758 752 749 744 740 739 735 732 729 725 723 720 721 723 719 718 721 724 731 734 731 733 734 741 750 752 750 747 741 733 727 726 721 714 721 732 735 734 735 737 739 743 752 765 773 775 773 774 767 752 747 749 743 744 750 747 749 750 744 739 734 730 730 732 737 742 744 747 749 753
765 764 762 761 761 760 759 760 761 761 761 760 761 764 770 775 770 762 760 757 749 743 742 742 738 732 727 726 722 717 721 725 720 720 724 726 734 736 734 734 733 734 740 748 751 748 749 743 728 723 721 714 714 720 721 724 729 732 731 734 744 753 762 768 764 762 759 751 749 749 748 755 755 749 749 746 739 736 735 735 736 737 741 744 747 752 756 760
762 762 760 759 759 758 758 759 760 761 761 761 764 769 771 770 767 765 762 756 751 748 746 743 740 736 730 728 723 717 720 725 723 723 726 730 734 734 733 732 732 733 737 747 751 746 750 745 724 716 717 713 712 711 709 715 725 733 731 733 740 738 741 755 760 758 755 752 755 758 760 763 757 749 747 745 741 740 740 741 742 745 746 746 748 752 756 759
761 760 758 758 757 758 758 758 760 761 761 762 766 771 770 766 765 765 760 756 755 755 752 746 741 740 738 732 728 723 719 722 725 725 726 729 730 729 729 726 726 728 731 740 746 744 747 740 721 717 716 710 710 709 707 712 722 733 734 731 732 728 729 746 761 764 759 754 763 772 768 762 758 752 748 748 747 745 744 745 746 748 750 752 753 751 753 758
759 758 757 757 757 758 758 759 760 761 761 764 767 770 771 767 763 762 759 757 757 755 756 757 747 742 744 741 736 730 724 724 726 727 728 730 729 727 727 724 722 723 723 729 737 739 742 738 723 720 719 709 707 708 706 707 713 725 731 725 726 732 733 739 753 764 763 759 766 774 771 767 766 761 755 754 752 750 748 747 749 751 751 754 756 756 758 762
759 758 757 757 757 758 759 759 760 761 762 765 769 772 773 767 761 759 758 757 758 755 758 762 751 742 747 749 742 732 728 730 730 730 730 731 729 725 724 724 721 721 720 722 731 734 738 741 728 720 721 713 707 711 714 711 710 715 719 718 723 736 740 741 750 759 762 767 772 773 774 773 769 763 761 759 756 754 752 750 749 751 750 751 755 759 761 763
759 758 758 757 758 758 760 760 761 762 763 767 771 770 769 766 760 758 758 757 758 757 757 757 751 746 747 748 743 734 730 731 730 730 730 731 730 724 723 724 722 722 721 721 729 733 735 743 736 721 718 717 713 718 725 722 714 712 715 719 723 730 737 740 745 748 752 765 775 775 774 771 767 766 765 761 759 758 759 758 754 752 753 754 757 760 762 765
759 759 759 758 758 759 760 761 762 764 766 769 772 769 766 765 760 756 756 756 756 755 755 753 751 751 748 743 740 735 731 729 729 730 730 729 729 725 722 723 722 723 723 722 727 732 734 743 743 726 717 722 724 723 727 727 722 719 722 727 730 731 734 738 743 746 746 753 767 773 774 770 766 767 767 764 762 762 763 763 761 759 758 758 759 758 759 764
759 760 761 759 759 760 761 763 766 768 769 771 773 770 766 763 760 757 755 754 753 751 750 750 750 750 747 743 739 734 731 731 730 730 729 728 729 727 721 720 722 723 724 725 727 731 734 740 745 737 728 731 731 724 724 725 725 727 730 735 740 737 735 739 747 751 746 748 757 762 766 770 768 766 766 765 763 762 763 764 764 766 765 764 763 759 759 762
760 762 762 759 759 760 762 766 770 771 770 770 770 768 765 761 760 758 754 753 752 749 747 747 746 745 744 740 737 733 732 732 731 730 729 727 726 724 718 717 721 721 724 730 731 730 732 738 744 742 738 738 732 725 725 726 725 727 732 740 743 740 736 737 742 747 746 752 759 756 760 769 770 766 765 764 763 762 764 764 764 766 769 771 770 765 765 767
762 763 761 761 761 761 764 768 770 770 769 768 768 766 764 762 760 758 755 754 752 749 748 746 743 742 739 736 734 733 732 731 730 729 728 726 724 723 719 718 720 721 724 731 733 729 732 740 744 743 742 738 731 726 725 726 726 726 732 741 742 742 742 739 739 741 742 750 755 753 762 771 768 767 766 764 764 763 763 765 764 765 769 774 775 773 773 773
764 764 762 762 762 762 765 769 770 770 770 770 770 767 763 762 760 759 758 756 752 751 750 748 744 742 738 735 735 734 732 731 731 729 728 729 727 724 721 718 719 722 724 728 729 728 736 746 746 748 754 751 744 739 732 727 730 733 736 740 741 742 741 740 744 741 741 753 753 747 763 775 768 767 768 766 767 766 766 767 767 767 770 773 777 778 777 776
764 765 763 762 761 762 766 769 770 772 773 774 774 770 767 764 759 758 759 756 752 751 752 749 743 742 740 738 736 735 733 731 732 731 730 731 729 725 723 721 720 723 724 725 725 726 738 749 747 748 758 762 759 753 744 738 741 743 740 737 739 741 737 737 742 739 742 758 758 751 764 776 771 769 770 769 770 771 770 770 769 769 772 775 779 781 779 777
763 765 766 765 764 764 767 770 771 771 773 775 774 771 771 769 762 757 757 755 753 752 752 749 745 743 742 740 739 739 737 733 733 735 735 734 732 730 728 725 724 726 727 726 727 730 741 752 754 751 754 759 759 753 747 745 745 746 744 739 739 741 739 738 740 743 752 763 763 762 769 772 771 772 772 772 773 773 774 773 771 772 774 778 782 782 780 780
762 765 767 767 767 767 769 770 771 772 773 775 773 772 772 771 766 760 756 755 755 754 752 750 748 747 746 745 741 741 742 739 735 738 740 738 735 733 731 728 728 729 728 729 731 734 742 752 759 760 759 761 760 753 749 748 748 752 753 749 746 742 736 737 744 753 759 759 761 768 770 768 771 773 772 774 775 775 777 777 777 778 780 783 784 783 783 785
764 766 767 767 768 769 771 771 772 773 773 773 773 773 772 771 769 765 760 757 756 755 752 752 752 751 751 749 744 744 747 743 740 743 745 743 739 736 733 732 732 731 731 733 735 738 747 756 761 762 760 760 759 754 751 753 756 761 761 758 757 752 741 744 758 766 760 751 757 768 770 773 777 777 778 780 780 781 784 785 784 785 786 787 787 787 788 790
765 766 768 767 767 769 772 772 773 773 772 771 771 772 771 770 768 766 764 762 759 757 756 756 756 754 753 750 746 749 752 747 746 749 749 748 745 742 740 738 736 734 733 735 739 742 750 762 766 762 759 760 761 757 757 759 759 762 767 766 765 764 758 758 768 773 765 758 762 769 775 784 789 788 788 788 787 788 789 789 790 791 791 792 791 792 794 796
766 766 768 767 767 770 772 772 772 772 771 772 771 770 769 769 767 765 764 764 764 761 759 759 757 755 755 752 748 750 753 751 751 752 753 755 751 746 746 744 739 738 737 739 743 742 747 760 766 761 761 766 767 762 761 764 762 761 766 769 768 769 769 766 767 769 768 769 773 774 778 788 794 792 792 792 790 790 792 793 795 796 796 796 795 797 799 800
767 767 768 767 769 774 773 772 775 773 770 773 773 769 768 767 767 767 764 762 764 763 760 759 757 756 756 754 750 750 751 751 753 755 756 757 753 748 747 745 742 742 742 743 746 743 745 759 765 761 762 770 772 769 768 767 762 759 764 774 779 777 773 770 769 768 767 771 776 775 776 787 795 795 794 795 795 795 797 799 799 800 800 799 800 802 802 802
767 767 768 767 771 778 776 774 778 777 773 774 774 770 768 768 768 769 765 760 759 758 757 758 757 755 755 752 748 747 747 747 751 755 755 753 749 747 746 743 742 743 743 745 749 749 748 755 761 760 765 775 777 775 774 769 762 763 774 785 788 781 774 771 774 774 771 770 771 772 779 791 799 798 799 801 802 803 804 805 804 804 804 803 804 806 806 805